Location: Walton
(43.6794°N, 81.3017°W)
Time: 03:10:17
(UTC+00:00)

Cosmos 1758 Rocket - Pass Details

Date: 09 December 2025
Orbit: 595 x 629 km, 82.5° (Epoch: 12 January)

Event Time Altitude Azimuth Distance (km) Brightness Sun altitude
Rises 11:38:32 0° 189° (S) 2,898 7.2 -12.0°
Reaches altitude 10° 11:40:46 10° 190° (S) 1,992 6.3 -11.6°
Maximum altitude 11:45:11 83° 277° (W) 633 3.5 -10.9°
Drops below altitude 10° 11:49:37 10° 7° (N) 1,990 6.0 -10.1°
Sets 11:51:50 0° 8° (N) 2,895 6.9 -9.8°
